DW8487 Weather Reports


time (UTC)temp
C
wind
direction
speed
KPH
gust
KPH
rain 1hr
cm
rain 24hr
cm
rain mn
cm
humidity
%
barometer
mb
20260507231536 5 159 0.0 3.2 0.00 0.00 0.00 85 1016.5
20260507224548 5 159 4.8 8.0 0.00 0.00 0.00 86 1016.4
20260507223027 5 159 0.0 0.0 0.00 0.00 0.00 87 1016.4
20260507221534 5 159 1.6 4.8 0.00 0.00 0.00 86 1016.3
20260507220029 5 159 3.2 4.8 0.00 0.00 0.00 86 1016.4
20260507214529 5 159 1.6 6.4 0.00 0.00 0.00 86 1016.3
20260507213030 5 159 3.2 8.0 0.00 0.00 0.00 84 1016.3
20260507211520 5 159 4.8 6.4 0.00 0.00 0.00 84 1016.1
20260507210041 5 159 0.0 3.2 0.00 0.00 0.00 83 1015.8
20260507204518 5 159 1.6 8.0 0.00 0.00 0.00 83 1015.7
20260507203021 6 159 1.6 4.8 0.00 0.00 0.00 83 1015.8
20260507201518 6 159 1.6 3.2 0.00 0.00 0.00 83 1015.9
20260507200022 6 159 0.0 4.8 0.00 0.00 0.00 82 1015.6
20260507194511 6 159 3.2 6.4 0.00 0.00 0.00 81 1015.3
20260507193018 6 159 1.6 3.2 0.00 0.00 0.00 80 1014.9
20260507191521 6 159 3.2 4.8 0.00 0.00 0.00 79 1014.5
20260507190009 7 159 0.0 3.2 0.00 0.00 0.00 79 1014.1
20260507184508 7 159 3.2 6.4 0.00 0.00 0.00 78 1014.0
20260507183008 7 119 0.0 3.2 0.00 0.00 0.00 76 1013.9
20260507181507 8 119 1.6 4.8 0.00 0.00 0.00 73 1013.7
20260507180008 8 119 0.0 3.2 0.00 0.00 0.00 72 1013.5
20260507174506 8 119 0.0 4.8 0.00 0.00 0.00 70 1013.3
20260507173015 10 119 1.6 4.8 0.00 0.00 0.00 67 1013.1
20260507171505 10 38 0.0 4.8 0.00 0.00 0.00 61 1013.0
20260507170005 10 16 1.6 8.0 0.00 0.00 0.00 59 1013.0
20260507164504 10 78 0.0 3.2 0.00 0.00 0.00 61 1012.9
20260507163004 10 78 0.0 3.2 0.00 0.00 0.00 58 1012.9
20260507161503 11 78 1.6 4.8 0.00 0.00 0.00 56 1012.9
20260507160003 11 44 1.6 3.2 0.00 0.00 0.00 54 1013.1
20260507154501 11 22 1.6 6.4 0.00 0.00 0.00 52 1013.0
20260507153004 11 18 0.0 4.8 0.00 0.00 0.00 52 1012.9
20260507151601 11 342 1.6 8.0 0.00 0.00 0.00 51 1012.9
20260507144605 12 43 0.0 8.0 0.00 0.00 0.00 45 1013.0
20260507143104 12 60 4.8 8.0 0.00 0.00 0.00 47 1013.0
20260507141619 12 34 0.0 6.4 0.00 0.00 0.00 45 1013.1
20260507140109 11 27 1.6 6.4 0.00 0.00 0.00 47 1013.2
20260507134606 12 340 0.0 4.8 0.00 0.00 0.00 46 1013.3
20260507133056 11 360 0.0 4.8 0.00 0.00 0.00 48 1013.5
20260507131559 12 360 3.2 12.9 0.00 0.00 0.00 46 1013.7
20260507130055 12 338 3.2 9.7 0.00 0.00 0.00 47 1013.7
20260507124553 11 17 1.6 4.8 0.00 0.00 0.00 50 1013.9
20260507123053 11 339 0.0 3.2 0.00 0.00 0.00 47 1014.0
20260507121551 11 347 3.2 9.7 0.00 0.00 0.00 50 1014.0
20260507120052 11 9 4.8 14.5 0.00 0.00 0.00 48 1014.1
20260507114555 11 355 3.2 17.7 0.00 0.00 0.00 47 1014.2
20260507113051 11 315 12.9 24.1 0.00 0.00 0.00 49 1014.3
20260507111557 11 360 9.7 22.5 0.00 0.00 0.00 51 1014.2
20260507110045 11 344 9.7 17.7 0.00 0.05 0.00 47 1014.4
20260507104541 11 321 6.4 17.7 0.00 0.05 0.00 50 1014.5
20260507101537 10 351 9.7 19.3 0.00 0.05 0.00 52 1014.8
20260507100035 10 329 11.3 20.9 0.00 0.08 0.00 56 1014.8
20260507094526 10 355 9.7 19.3 0.00 0.08 0.00 54 1014.8
20260507093022 9 40 6.4 16.1 0.00 0.08 0.00 56 1014.7
20260507070052 2 163 6.4 8.0 0.00 0.20 0.00 77 1014.7
20260507064605 1 168 3.2 9.7 0.00 0.20 0.00 78 1014.6
20260507063052 1 174 3.2 9.7 0.00 0.20 0.00 80 1014.6
20260507061546 1 188 3.2 6.4 0.00 0.20 0.00 78 1014.5
20260507060051 2 184 1.6 8.0 0.00 0.33 0.00 74 1014.4
20260507054545 1 161 4.8 8.0 0.00 0.33 0.00 77 1014.5
20260507053044 1 166 4.8 8.0 0.00 0.33 0.00 77 1014.3
20260507053013 1 166 6.4 8.0 0.00 0.33 0.00 77 1014.3
20260507051540 1 191 4.8 9.7 0.00 0.33 0.00 77 1014.1
20260507050041 1 188 4.8 11.3 0.00 0.36 0.00 76 1013.9
20260507044537 1 171 6.4 11.3 0.00 0.36 0.00 78 1013.9
20260507043035 1 180 6.4 9.7 0.00 0.36 0.00 79 1013.6
20260507041547 1 167 4.8 9.7 0.00 0.36 0.00 78 1013.5
20260507040040 1 167 6.4 9.7 0.00 0.36 0.00 76 1013.5
20260507034530 1 149 4.8 6.4 0.00 0.36 0.00 75 1013.5
20260507033033 1 167 4.8 8.0 0.00 0.36 0.00 77 1013.4
20260507031528 1 157 6.4 9.7 0.00 0.36 0.00 78 1013.4
20260507030026 1 171 6.4 9.7 0.00 0.36 0.00 77 1013.4
20260507024526 1 180 6.4 12.9 0.00 0.36 0.00 79 1013.3
20260507023025 1 157 4.8 9.7 0.00 0.36 0.00 78 1013.4
20260507021524 1 140 4.8 8.0 0.00 0.36 0.00 79 1013.3
20260507020027 1 156 3.2 9.7 0.00 0.36 0.00 79 1013.3
20260507014537 1 188 8.0 11.3 0.00 0.36 0.00 80 1013.1
20260507013035 1 167 4.8 9.7 0.00 0.36 0.00 79 1013.0
20260507011532 2 159 4.8 11.3 0.00 0.36 0.00 78 1013.0
20260507010018 1 150 4.8 9.7 0.00 0.36 0.00 80 1012.9
20260507004518 1 180 4.8 9.7 0.00 0.36 0.00 81 1012.9
20260507003017 1 167 4.8 9.7 0.00 0.36 0.00 81 1013.1
20260507001513 1 142 6.4 9.7 0.00 0.36 0.00 81 1013.2
20260507000022 1 149 3.2 9.7 0.00 0.36 0.00 82 1013.3
20260506234509 2 162 3.2 8.0 0.00 0.36 0.00 81 1013.1
20260506233009 2 161 4.8 8.0 0.00 0.36 0.00 81 1013.2